Weather History for Osceola Municipal, IA

Change the Weather History Date:

Sunday, January 19, 2014

  Actual Average (KLWD) Record (KLWD)
Temperature  
Mean Temperature 32 °F 24 °F  
Max Temperature 50 °F 33 °F 56 °F (2013)
Min Temperature 15 °F 15 °F -17 °F (1985)
Degree Days  
Heating Degree Days 32 41  
Month to date heating degree days 779  
Since 1 July heating degree days 3208  
Cooling Degree Days 0 0  
Month to date cooling degree days 0  
Year to date cooling degree days 0  
Moisture  
Dew Point 22 °F    
Average Humidity 65    
Maximum Humidity 88    
Minimum Humidity 39    
Precipitation  
Precipitation 0.00 in 0.02 in 0.40 in (1963)
Month to date precipitation 0.39  
Sea Level Pressure  
Sea Level Pressure 29.78 in    
Wind  
Wind Speed 11 mph (SW)    
Max Wind Speed 18 mph    
Max Gust Speed 26 mph    
Visibility 10 miles    
Events      
T = Trace of Precipitation, MM = Missing Value Source: NWS Daily Summary

Daily Weather History Graph

Daily Weather History Graph

Search for Another Location

Airport:

Trip Planner

Search our weather history database for the weather conditions in past years. The results will help you decide how hot, cold, wet, or windy it might be!

Date:

Astronomy

Jan. 19, 2014 Rise Set
Actual Time 7:35 AM CST 5:15 PM CST
Civil Twilight 7:05 AM CST 5:45 PM CST
Nautical Twilight 6:31 AM CST 6:19 PM CST
Astronomical Twilight 5:59 AM CST 6:52 PM CST
Moon 8:56 PM CST (1/19) 9:03 AM CST (1/19)
Length of Visible Light 10h 40m
Length of Day
9h 40m
Waning Gibbous, 89% of the Moon is Illuminated
Jan 19
Waning Gibbous
Jan 23
Last Quarter
Jan 30
New
Feb 6
First Quarter
Feb 14
Full

Hourly Weather History & Observations

Time (CST) Temp. Windchill Dew Point Humidity Pressure Visibility Wind Dir Wind Speed Gust Speed Precip Events Conditions
12:15 AM 15.8 °F 4.2 °F 12.6 °F 87% 29.98 in 10.0 mi WSW 9.2 mph - N/A   Clear
12:35 AM 16.5 °F 6.0 °F 13.1 °F 86% 29.98 in 10.0 mi WSW 8.1 mph - N/A   Clear
12:55 AM 16.7 °F 7.2 °F 13.5 °F 87% 29.98 in 10.0 mi WSW 6.9 mph - N/A   Clear
1:15 AM 16.9 °F 8.5 °F 13.3 °F 86% 29.97 in 10.0 mi SW 5.8 mph - N/A   Clear
1:35 AM 15.8 °F 6.1 °F 12.9 °F 88% 29.94 in 10.0 mi SW 6.9 mph - N/A   Clear
1:55 AM 15.8 °F 7.2 °F 12.9 °F 88% 29.93 in 10.0 mi SSW 5.8 mph - N/A   Clear
2:15 AM 16.3 °F 4.9 °F 13.3 °F 88% 29.94 in 10.0 mi SW 9.2 mph - N/A   Clear
2:35 AM 16.7 °F 5.3 °F 13.6 °F 88% 29.94 in 10.0 mi SW 9.2 mph - N/A   Clear
2:55 AM 16.7 °F 2.0 °F 13.6 °F 88% 29.93 in 10.0 mi SW 15.0 mph - N/A   Clear
3:15 AM 17.1 °F 3.6 °F 14.0 °F 88% 29.92 in 10.0 mi SW 12.7 mph - N/A   Clear
3:35 AM 18.0 °F 4.8 °F 14.4 °F 86% 29.91 in 10.0 mi SW 12.7 mph 18.4 mph N/A   Clear
3:55 AM 17.6 °F 3.7 °F 14.2 °F 86% 29.90 in 10.0 mi SW 13.8 mph - N/A   Clear
4:15 AM 18.0 °F 5.4 °F 14.5 °F 86% 29.89 in 10.0 mi SW 11.5 mph - N/A   Clear
4:35 AM 18.0 °F 6.1 °F 14.5 °F 86% 29.89 in 10.0 mi SW 10.4 mph - N/A   Clear
4:55 AM 18.1 °F 6.3 °F 14.9 °F 87% 29.89 in 10.0 mi SSW 10.4 mph - N/A   Clear
5:15 AM 18.5 °F 7.5 °F 15.4 °F 88% 29.88 in 10.0 mi SW 9.2 mph - N/A   Clear
5:35 AM 18.9 °F 8.0 °F 15.8 °F 88% 29.87 in 10.0 mi SW 9.2 mph - N/A   Clear
5:55 AM 20.1 °F 8.1 °F 16.9 °F 87% 29.86 in 10.0 mi SSW 11.5 mph - N/A   Clear
6:15 AM 20.7 °F 10.2 °F 17.4 °F 87% 29.86 in 10.0 mi SSW 9.2 mph - N/A   Clear
6:35 AM 21.4 °F 11.1 °F 18.0 °F 87% 29.85 in 10.0 mi SSW 9.2 mph - N/A   Clear
6:55 AM 23.0 °F 12.4 °F 19.0 °F 85% 29.84 in 10.0 mi SW 10.4 mph - N/A   Clear
7:15 AM 24.4 °F 13.5 °F 19.9 °F 83% 29.83 in 10.0 mi SW 11.5 mph - N/A   Clear
7:35 AM 25.5 °F 12.9 °F 20.3 °F 81% 29.82 in 10.0 mi SSW 16.1 mph - N/A   Clear
7:55 AM 24.8 °F 12.9 °F 19.9 °F 82% 29.82 in 10.0 mi SSW 13.8 mph - N/A   Clear
8:15 AM 25.2 °F 13.3 °F 20.1 °F 81% 29.82 in 10.0 mi SSW 13.8 mph - N/A   Clear
8:35 AM 27.0 °F 16.1 °F 21.2 °F 79% 29.82 in 10.0 mi SW 12.7 mph 19.6 mph N/A   Clear
8:55 AM 28.4 °F 18.0 °F 21.9 °F 77% 29.81 in 10.0 mi SSW 12.7 mph - N/A   Clear
9:15 AM 30.4 °F 19.5 °F 22.6 °F 73% 29.80 in 10.0 mi SSW 15.0 mph 20.7 mph N/A   Clear
9:35 AM 32.0 °F 21.2 °F 22.8 °F 69% 29.79 in 10.0 mi SSW 16.1 mph 26.5 mph N/A   Clear
9:55 AM 33.4 °F 23.9 °F 23.9 °F 68% 29.79 in 10.0 mi SW 13.8 mph 18.4 mph N/A   Clear
10:15 AM 34.9 °F 24.6 °F 23.9 °F 64% 29.78 in 10.0 mi SSW 17.3 mph - N/A   Clear
10:35 AM 35.1 °F 24.8 °F 24.3 °F 65% 29.77 in 10.0 mi SW 17.3 mph 23.0 mph N/A   Clear
10:55 AM 36.7 °F 26.9 °F 24.3 °F 61% 29.77 in 10.0 mi SW 17.3 mph 24.2 mph N/A   Clear
11:15 AM 38.5 °F 30.3 °F 24.6 °F 58% 29.76 in 10.0 mi SW 13.8 mph 21.9 mph N/A   Clear
11:35 AM 40.6 °F 32.7 °F 24.8 °F 53% 29.75 in 10.0 mi SW 15.0 mph 19.6 mph N/A   Clear
11:55 AM 41.7 °F 33.4 °F 24.4 °F 50% 29.73 in 10.0 mi SW 17.3 mph - N/A   Clear
12:15 PM 43.2 °F 35.3 °F 25.0 °F 49% 29.73 in 10.0 mi SW 17.3 mph 24.2 mph N/A   Clear
12:35 PM 43.7 °F 35.7 °F 25.0 °F 48% 29.70 in 10.0 mi SSW 18.4 mph 23.0 mph N/A   Clear
12:55 PM 44.4 °F 36.6 °F 25.5 °F 48% 29.68 in 10.0 mi SW 18.4 mph 24.2 mph N/A   Clear
1:15 PM 46.4 °F 40.4 °F 26.6 °F 46% 29.68 in 10.0 mi SW 13.8 mph 19.6 mph N/A   Clear
1:35 PM 47.7 °F - 26.2 °F 43% 29.67 in 10.0 mi SW 16.1 mph 21.9 mph N/A   Clear
1:55 PM 48.2 °F - 25.5 °F 41% 29.66 in 10.0 mi SW 15.0 mph 21.9 mph N/A   Clear
2:15 PM 49.1 °F - 26.1 °F 41% 29.65 in 7.0 mi SW 15.0 mph 19.6 mph N/A   Clear
2:35 PM 49.5 °F - 26.6 °F 41% 29.65 in 10.0 mi SW 15.0 mph - N/A   Clear
2:55 PM 50.2 °F - 26.2 °F 39% 29.64 in 10.0 mi SW 13.8 mph 19.6 mph N/A   Clear
3:15 PM 50.2 °F - 26.6 °F 40% 29.64 in 10.0 mi SW 15.0 mph 19.6 mph N/A   Clear
3:35 PM 50.0 °F - 27.0 °F 41% 29.63 in 10.0 mi SW 17.3 mph 20.7 mph N/A   Clear
3:55 PM 49.5 °F - 27.1 °F 42% 29.63 in 10.0 mi SW 13.8 mph 20.7 mph N/A   Clear
4:15 PM 49.3 °F - 26.6 °F 41% 29.64 in 10.0 mi SW 16.1 mph 19.6 mph N/A   Clear
4:35 PM 48.2 °F - 27.0 °F 44% 29.63 in 10.0 mi SW 13.8 mph - N/A   Clear
4:55 PM 46.2 °F 40.8 °F 27.5 °F 48% 29.65 in 10.0 mi SW 11.5 mph - N/A   Clear
5:15 PM 43.9 °F 38.3 °F 27.5 °F 53% 29.65 in 10.0 mi SW 10.4 mph - N/A   Clear
5:35 PM 43.3 °F 37.2 °F 27.9 °F 54% 29.65 in 10.0 mi SW 11.5 mph - N/A   Clear
5:55 PM 43.9 °F 37.2 °F 28.0 °F 54% 29.65 in 10.0 mi SW 13.8 mph - N/A   Clear
6:15 PM 43.9 °F 36.8 °F 28.0 °F 54% 29.66 in 10.0 mi SW 15.0 mph - N/A   Clear
6:55 PM 45.0 °F 38.9 °F 27.5 °F 50% 29.69 in 10.0 mi West 12.7 mph 19.6 mph N/A   Clear
7:15 PM 44.2 °F 38.8 °F 27.3 °F 51% 29.70 in 10.0 mi West 10.4 mph - N/A   Clear
7:35 PM 44.2 °F 38.4 °F 27.0 °F 51% 29.70 in 10.0 mi WSW 11.5 mph - N/A   Clear
7:55 PM 42.6 °F 36.3 °F 26.6 °F 53% 29.71 in 10.0 mi WSW 11.5 mph - N/A   Clear
8:15 PM 42.1 °F 36.6 °F 26.4 °F 54% 29.72 in 10.0 mi West 9.2 mph - N/A   Clear
8:35 PM 40.3 °F 34.4 °F 26.2 °F 57% 29.73 in 10.0 mi West 9.2 mph - N/A   Clear
8:55 PM 39.6 °F 33.0 °F 25.9 °F 58% 29.74 in 10.0 mi WNW 10.4 mph - N/A   Clear
9:15 PM 42.4 °F 34.4 °F 25.3 °F 51% 29.75 in 10.0 mi NW 17.3 mph 20.7 mph N/A   Clear
9:35 PM 43.0 °F 36.0 °F 25.3 °F 50% 29.76 in 10.0 mi WNW 13.8 mph - N/A   Clear
9:55 PM 41.2 °F 34.1 °F 25.7 °F 54% 29.77 in 10.0 mi WNW 12.7 mph - N/A   Clear
10:15 PM 40.1 °F 33.6 °F 25.7 °F 56% 29.77 in 10.0 mi WNW 10.4 mph - N/A   Clear
10:35 PM 40.8 °F 33.7 °F 26.4 °F 57% 29.78 in 10.0 mi NW 12.7 mph - N/A   Clear
10:55 PM 39.4 °F 32.3 °F 26.6 °F 60% 29.79 in 10.0 mi WNW 11.5 mph - N/A   Clear
11:15 PM 38.7 °F 31.8 °F 26.6 °F 62% 29.79 in 10.0 mi NW 10.4 mph - N/A   Clear
11:35 PM 37.4 °F 30.8 °F 26.6 °F 65% 29.81 in 10.0 mi WNW 9.2 mph - N/A   Clear
11:55 PM 35.1 °F 29.3 °F 26.4 °F 71% 29.81 in 10.0 mi West 6.9 mph - N/A   Clear